Flag for Germany Weather past 2 weeks in Offenbach, Hesse, Germany

Now
55 °F

Passing clouds.


Feels Like: 52 °F
Forecast: 31 / 60 °F
Wind: 12 mph from Northwest

Location: Frankfurt-M-Flughafen Airport

Current Time: Apr 28, 2015 at 7:01:00 PM

Latest Report: Apr 28, 2015 at 6:20 PM


Visibility: N/A

Pressure: 30.07 "Hg

Humidity: 41%

Dew point: 32 °F

Location of OffenbachLocation

Historic Weather in Offenbach — Graph

°F

Offenbach temperature yesterday

Maximum temperature yesterday: 57 °F (at 12:20 AM)
Minimum temperature yesterday: 46 °F (at 10:50 PM)
Average temperature yesterday: 54 °F

Past Weeks' High & Low Weather Summary

 TemperatureHumidityPressure
High77 °F (Apr 15, 3:50 PM)100% (Apr 23, 5:50 AM)30.45 "Hg (Apr 23, 5:50 AM)
Low34 °F (Apr 23, 5:50 AM)20% (Apr 19, 5:20 PM)29.56 "Hg (Apr 27, 3:50 AM)
Average55 °F58%30.06 "Hg
* Reported Apr 13 5:20 PM — Apr 28 5:50 PM, Offenbach, Weather by CustomWeather, © 2015

Note: Actual official high and low records may vary slightly from our data, if they occured in-between our weather recording intervals... More about our weather records

Advertising

Offenbach weather history for previous 24 hours

 ConditionsComfort  
Time TempWeatherWind HumidityBarometerVisibility
5:50 PM
Tue, Apr 28
57 °FPassing clouds.13 mph33%30.04 "HgN/A
5:20 PM57 °FPassing clouds.10 mph36%30.04 "HgN/A
4:50 PM57 °FPassing clouds.13 mph31%30.04 "HgN/A
4:20 PM57 °FPassing clouds.10 mph33%30.01 "HgN/A
3:50 PM57 °FPassing clouds.7 mph33%30.01 "HgN/A
3:20 PM57 °FPassing clouds.8 mph36%30.04 "HgN/A
2:50 PM55 °FPassing clouds.12 mph36%30.01 "HgN/A
2:20 PM55 °FPassing clouds.13 mph36%30.01 "HgN/A
1:50 PM55 °FSunny.13 mph33%30.01 "Hg10 mi
1:20 PM55 °FPassing clouds.15 mph33%30.01 "HgN/A
12:50 PM54 °FScattered clouds.14 mph41%30.01 "HgN/A
12:20 PM52 °FPartly sunny.9 mph50%29.98 "HgN/A
11:50 AM52 °FPartly sunny.15 mph50%29.98 "HgN/A
11:20 AM52 °FPartly sunny.15 mph50%29.98 "HgN/A
10:50 AM52 °FPartly sunny.12 mph50%29.95 "HgN/A
10:20 AM50 °FPartly sunny.14 mph58%29.95 "HgN/A
9:50 AM50 °FPartly sunny.9 mph62%29.95 "HgN/A
9:20 AM48 °FPartly sunny.12 mph66%29.92 "HgN/A
8:50 AM48 °FScattered clouds.12 mph66%29.92 "HgN/A
8:20 AM46 °FScattered clouds.9 mph71%29.92 "HgN/A
7:50 AM46 °FPartly sunny.10 mph76%29.89 "HgN/A
7:20 AM46 °FPartly sunny.8 mph76%29.86 "HgN/A
6:50 AM46 °FPassing clouds.9 mph76%29.86 "HgN/A
6:20 AM46 °FPassing clouds.12 mph76%29.83 "HgN/A
5:20 AM46 °FPartly cloudy.13 mph71%29.80 "HgN/A
4:50 AM46 °FLight rain. Passing clouds.14 mph76%29.80 "HgN/A
4:20 AM46 °FLight rain. Passing clouds.10 mph71%29.80 "HgN/A
3:50 AM46 °FPassing clouds.12 mph76%29.77 "HgN/A
3:20 AM48 °FPartly cloudy.13 mph71%29.77 "HgN/A
2:50 AM48 °FPartly cloudy.10 mph71%29.77 "HgN/A
2:20 AM46 °FPartly cloudy.13 mph76%29.77 "HgN/A
1:50 AM46 °FPassing clouds.14 mph76%29.77 "HgN/A
1:20 AM46 °FLight rain. Partly cloudy.14 mph76%29.74 "HgN/A
12:50 AM46 °FLight rain. Partly cloudy.14 mph76%29.74 "HgN/A
12:20 AM46 °FLight rain. Partly cloudy.15 mph82%29.74 "HgN/A
11:20 PM
Mon, Apr 27
46 °FPassing clouds.16 mph82%29.71 "HgN/A
10:50 PM46 °FPassing clouds.15 mph82%29.71 "HgN/A
10:20 PM48 °FPassing clouds.16 mph82%29.71 "HgN/A
9:50 PM48 °FPassing clouds.15 mph82%29.71 "HgN/A
9:20 PM48 °FLight rain. Broken clouds.15 mph82%29.71 "HgN/A
8:50 PM48 °FLight rain. Broken clouds.14 mph82%29.68 "HgN/A
8:20 PM48 °FLight rain. Broken clouds.18 mph87%29.68 "HgN/A
7:50 PM48 °FBroken clouds.17 mph82%29.68 "HgN/A
7:20 PM50 °FLight rain. More clouds than sun.16 mph82%29.65 "HgN/A
Weather by CustomWeather, © 2015

See weather overviewHow to use our weather pages